FW2417 Weather Reports


Display with metric or nautical units.
time (UTC)temp
F
wind
direction
speed
MPH
gust
MPH
rain 1hr
in
rain 24hr
in
rain mn
in
humidity
%
barometer
mb
20260505053045 54 221 0.0 0.0 0.00 0.00 0.00 84 1016.0
20260505051517 54 221 0.0 0.0 0.00 0.00 0.00 79 1015.9
20260505050116 55 221 0.0 0.0 0.00 0.00 0.00 78 1015.7
20260505041612 56 220 0.0 0.0 0.00 0.00 0.00 76 1015.5
20260505040105 56 221 0.0 0.0 0.00 0.00 0.00 77 1015.6
20260505034555 56 221 0.0 0.0 0.00 0.00 0.00 76 1015.7
20260505033052 56 221 0.0 0.0 0.00 0.00 0.00 75 1015.6
20260505031545 56 221 0.0 0.0 0.00 0.00 0.00 76 1015.7
20260505030016 57 221 0.0 0.0 0.00 0.00 0.00 76 1015.7
20260505024539 57 221 0.0 0.0 0.00 0.00 0.00 81 1015.7
20260505023038 57 221 0.0 0.0 0.00 0.00 0.00 79 1015.8
20260505021508 57 221 0.0 1.0 0.00 0.00 0.00 81 1015.8
20260505020115 57 221 0.0 1.0 0.00 0.00 0.00 81 1015.8
20260505014608 57 238 0.0 2.0 0.00 0.00 0.00 81 1016.0
20260505013100 58 236 0.0 6.0 0.00 0.00 0.00 80 1016.0
20260505011556 58 240 1.0 4.0 0.00 0.00 0.00 80 1016.0
20260505010105 58 245 3.0 10.0 0.00 0.00 0.00 80 1016.1
20260505004542 58 225 0.0 4.0 0.00 0.00 0.00 80 1016.2
20260505003001 58 217 2.0 6.0 0.00 0.00 0.00 79 1016.3
20260505001616 59 222 1.0 8.0 0.00 0.00 0.00 78 1016.5
20260505000106 59 233 0.0 4.0 0.00 0.00 0.00 78 1016.5
20260504234553 59 224 0.0 4.0 0.00 0.00 0.00 77 1016.5
20260504233049 59 211 1.0 11.0 0.00 0.00 0.00 77 1016.3
20260504231538 59 239 0.0 5.0 0.00 0.00 0.00 76 1016.4
20260504230030 59 243 2.0 6.0 0.00 0.00 0.00 75 1016.5
20260504224508 60 224 2.0 10.0 0.00 0.00 0.00 74 1016.4
20260504223123 60 240 0.0 9.0 0.00 0.00 0.00 73 1016.4
20260504221502 60 224 5.0 9.0 0.00 0.00 0.00 72 1016.5
20260504220117 61 215 5.0 10.0 0.00 0.00 0.00 71 1016.5
20260504214555 61 224 2.0 11.0 0.00 0.00 0.00 71 1016.6
20260504213048 61 229 3.0 10.0 0.00 0.00 0.00 71 1016.5
20260504211557 62 217 2.0 10.0 0.00 0.00 0.00 70 1016.6
20260504210100 62 226 2.0 11.0 0.00 0.00 0.00 69 1016.6
20260504204550 62 226 2.0 8.0 0.00 0.00 0.00 68 1016.5
20260504203018 63 228 2.0 10.0 0.00 0.00 0.00 67 1016.3
20260504201546 63 252 4.0 13.0 0.00 0.00 0.00 67 1016.1
20260504200045 64 254 4.0 15.0 0.00 0.00 0.00 65 1016.0
20260504194535 64 221 6.0 15.0 0.00 0.00 0.00 65 1015.7
20260504193122 65 246 4.0 17.0 0.00 0.00 0.00 65 1015.6
20260504191631 65 303 4.0 13.0 0.00 0.00 0.00 64 1015.4
20260504190112 66 246 4.0 13.0 0.00 0.00 0.00 63 1015.4
20260504184616 67 252 6.0 16.0 0.00 0.00 0.00 61 1015.1
20260504183105 68 245 7.0 16.0 0.00 0.00 0.00 59 1014.9
20260504181604 69 240 8.0 15.0 0.00 0.00 0.00 56 1014.8
20260504180103 70 259 6.0 16.0 0.00 0.00 0.00 54 1014.8
20260504174602 70 276 2.0 14.0 0.00 0.00 0.00 53 1014.7
20260504173057 71 224 6.0 17.0 0.00 0.00 0.00 51 1014.7
20260504171555 72 212 4.0 16.0 0.00 0.00 0.00 49 1014.7
20260504150104 74 278 2.0 12.0 0.00 0.00 0.00 33 1014.9
20260504140106 74 340 0.0 11.0 0.00 0.00 0.00 34 1015.3
20260504100118 68 255 0.0 3.0 0.00 0.00 0.00 63 1016.7
20260504090109 66 239 0.0 3.0 0.00 0.00 0.00 72 1016.6
20260504081603 63 235 1.0 3.0 0.00 0.00 0.00 77 1016.7